World > North America > United States > Washington

Boston Harbor, Washington Regional Weather

Lat: 47.14N, Lon: 122.9W
Wx Zone: WAZ504Web Search

Ads allow us to feed your daily addiction for the world's greatest weather information. We're determined to offer quality sponsors, in the least annoying way possible.

Feedback


°F Click to change Boston Harbor hourly weather to Imperial units.Click to change Boston Harbor hourly weather to Metric units. °C
Boston Harbor Weather Map
UTC Time: 4/13/2021, 03:46
Your Time:

Boston Harbor, WA Regional Weather

Expires:202104130400;;467534
ASUS46 KSEW 130320
RWRWA 

WASHINGTON REGIONAL WEATHER ROUNDUP
NATIONAL WEATHER SERVICE SEATTLE WA
800 PM PDT MON APR 12 2021

NOTE:"FAIR" INDICATES FEW OR NO CLOUDS BELOW 12,000 FEET WITH NO 
SIGNIFICANT WEATHER AND/OR OBSTRUCTIONS TO VISIBILITY.


WAZ020-022-039-040-504-511-512-130400-
SOUTHWEST INTERIOR
  
CITY           SKY/WX    TMP DP  RH WIND       PRES   REMARKS
SHELTON        CLEAR     55  23  28 N10G18    30.19S                  
OLYMPIA        CLEAR     54  25  32 N9G21     30.20S                  
CHEHALIS       FAIR      54  30  40 N9        30.19R                  
KELSO          CLEAR     58  29  33 VRB3      30.14S                  
VANCOUVER      CLEAR     61  16  17 E12       30.11R                  
SCAPPOOSE, OR  CLEAR     59  30  33 N7        30.12R                  
PORTLAND, OR   PTCLDY    60  21  22 E13       30.11S                  
$$
 

SKY/WX - Weather  TMP - Temperature  DP - Dew Point  RH - Relative Humidity
WIND - Wind Direction/Speed PRES - Barometric Pressure VSB - Visibility
WCI - Wind Chill Index E13G22 Wind - East Wind 13 mph/Gusts of 22 mph